Back to catalog

COSMOS 1249 COOLANT

LostLEO
NORAD 26505·DEBRIS·🇷🇺 Russia

Launched Mar 5, 1981 from Baikonur Cosmodrome

Loading…

Next Passes (next 24 hours)

TLE

StaleSource: Space-Track

Epoch: Oct 28, 2022, 01:23 UTC

1 26505U 81021G   22301.05782157  .00000177  00000-0  20724-3 0  9996
2 26505  64.9650 182.8596 0060977 301.5477  57.9641 13.91672093155661

Track COSMOS 1249 COOLANT in real time with AllMySat

Download on the App Store